TimeCET,TemperatureF,Dew PointF,Humidity,Sea Level PressureIn,VisibilityMPH,Wind Direction,Wind SpeedMPH,Gust SpeedMPH,PrecipitationIn,Events,Conditions,WindDirDegrees,DateUTC
12:55 AM,23.0,8.6,54,30.04,-9999.0,North,15.0,-,N/A,,Clear,360,2012-11-06 23:55:00
1:00 AM,23,9,42,,25,North,15.0,,,,,0,2012-11-07 00:00:00
1:55 AM,23.0,8.6,54,30.04,-9999.0,North,12.7,-,N/A,,Clear,360,2012-11-07 00:55:00
2:55 AM,23.0,6.8,50,30.06,-9999.0,North,10.4,-,N/A,,Clear,10,2012-11-07 01:55:00
3:55 AM,23.0,8.6,54,30.06,-9999.0,North,9.2,-,N/A,,Clear,360,2012-11-07 02:55:00
4:00 AM,23,9,40,,25,North,9.2,,,,,0,2012-11-07 03:00:00
4:55 AM,23.0,6.8,50,30.06,-9999.0,North,10.4,-,N/A,,Clear,350,2012-11-07 03:55:00
5:55 AM,24.8,-4.0,28,30.09,-9999.0,NW,3.5,-,N/A,,Clear,320,2012-11-07 04:55:00
6:55 AM,23.0,-0.4,36,30.09,-9999.0,NNW,2.3,-,N/A,,Clear,330,2012-11-07 05:55:00
7:00 AM,23,0,22,,44,NNW,2.3,,,,Scattered Clouds,330,2012-11-07 06:00:00
7:55 AM,23.0,1.4,39,30.12,-9999.0,WSW,4.6,-,N/A,,Clear,250,2012-11-07 06:55:00
8:55 AM,24.8,5.0,43,30.15,-9999.0,Variable,2.3,-,N/A,,Clear,0,2012-11-07 07:55:00
9:55 AM,26.6,14.0,59,30.15,-9999.0,Variable,2.3,-,N/A,,Clear,0,2012-11-07 08:55:00
10:00 AM,27,15,46,,44,,2.3,,,,Scattered Clouds,,2012-11-07 09:00:00
10:55 AM,26.6,10.4,51,30.18,-9999.0,Variable,2.3,-,N/A,,Clear,0,2012-11-07 09:55:00
11:55 AM,26.6,10.4,51,30.18,-9999.0,Variable,2.3,-,N/A,,Clear,0,2012-11-07 10:55:00
12:55 PM,28.4,6.8,40,30.18,-9999.0,Variable,3.5,-,N/A,,Clear,0,2012-11-07 11:55:00
1:00 PM,29,7,24,,47,,3.5,,,,,,2012-11-07 12:00:00
1:55 PM,30.2,8.6,40,30.21,-9999.0,North,4.6,-,N/A,,Clear,350,2012-11-07 12:55:00
2:55 PM,30.2,10.4,44,30.21,-9999.0,NW,4.6,-,N/A,,Clear,320,2012-11-07 13:55:00
3:55 PM,30.2,12.2,47,30.21,-9999.0,North,9.2,-,N/A,,Clear,350,2012-11-07 14:55:00
4:00 PM,30,12,32,,47,North,9.2,,,,,350,2012-11-07 15:00:00
4:55 PM,30.2,14.0,51,30.24,-9999.0,North,17.3,-,N/A,,Clear,10,2012-11-07 15:55:00
5:55 PM,28.4,15.8,59,30.24,-9999.0,NNE,13.8,-,N/A,,Clear,30,2012-11-07 16:55:00
6:55 PM,28.4,17.6,64,30.27,-9999.0,NE,11.5,-,N/A,,Clear,40,2012-11-07 17:55:00
7:00 PM,29,17,49,,47,NE,11.5,,,,,40,2012-11-07 18:00:00
7:55 PM,30.2,17.6,60,30.30,-9999.0,SSW,4.6,-,N/A,,Clear,210,2012-11-07 18:55:00
8:55 PM,32.0,19.4,60,30.30,-9999.0,South,3.5,-,N/A,,Clear,190,2012-11-07 19:55:00
9:55 PM,32.0,19.4,60,30.30,-9999.0,SSW,6.9,-,N/A,,Clear,210,2012-11-07 20:55:00
10:00 PM,32,19,46,,47,SSW,6.9,,,,,210,2012-11-07 21:00:00
10:55 PM,32.0,17.6,55,30.33,-9999.0,WSW,11.5,-,N/A,,Clear,240,2012-11-07 21:55:00
11:55 PM,32.0,19.4,60,30.33,-9999.0,SW,12.7,-,N/A,,Clear,220,2012-11-07 22:55:00